Year,Month,Day,Hour,Minute,Value (Times are PST for temperature in C)
2015,06,28,00,00,25.80
2015,06,28,00,01,25.70
2015,06,28,00,02,25.70
2015,06,28,00,03,25.70
2015,06,28,00,04,25.70
2015,06,28,00,05,25.70
2015,06,28,00,06,25.70
2015,06,28,00,07,25.80
2015,06,28,00,08,25.80
2015,06,28,00,09,25.80
2015,06,28,00,10,25.80
2015,06,28,00,11,25.80
2015,06,28,00,12,25.80
2015,06,28,00,13,25.80
2015,06,28,00,14,25.80
2015,06,28,00,15,25.80
2015,06,28,00,16,25.80
2015,06,28,00,17,25.80
2015,06,28,00,18,25.80
2015,06,28,00,19,25.80
2015,06,28,00,20,25.80
2015,06,28,00,21,25.80
2015,06,28,00,22,25.80
2015,06,28,00,23,25.80
2015,06,28,00,24,25.70
2015,06,28,00,25,25.70
2015,06,28,00,26,25.70
2015,06,28,00,27,25.70
2015,06,28,00,28,25.70
2015,06,28,00,29,25.70
2015,06,28,00,30,25.70
2015,06,28,00,31,25.60
2015,06,28,00,32,25.60
2015,06,28,00,33,25.60
2015,06,28,00,34,25.60
2015,06,28,00,35,25.50
2015,06,28,00,36,25.50
2015,06,28,00,37,25.50
2015,06,28,00,38,25.50
2015,06,28,00,39,25.50
2015,06,28,00,40,25.50
2015,06,28,00,41,25.40
2015,06,28,00,42,25.40
2015,06,28,00,43,25.40
2015,06,28,00,44,25.40
2015,06,28,00,45,25.40
2015,06,28,00,46,25.30
2015,06,28,00,47,25.40
2015,06,28,00,48,25.30
2015,06,28,00,49,25.30
2015,06,28,00,50,25.30
2015,06,28,00,51,25.30
2015,06,28,00,52,25.30
2015,06,28,00,53,25.30
2015,06,28,00,54,25.30
2015,06,28,00,55,25.30
2015,06,28,00,56,25.30
2015,06,28,00,57,25.40
2015,06,28,00,58,25.40
2015,06,28,00,59,25.40
2015,06,28,01,00,25.50
2015,06,28,01,01,25.50
2015,06,28,01,02,25.50
2015,06,28,01,03,25.60
2015,06,28,01,04,25.60
2015,06,28,01,05,25.60
2015,06,28,01,06,25.60
2015,06,28,01,07,25.60
2015,06,28,01,08,25.60
2015,06,28,01,09,25.60
2015,06,28,01,10,25.60
2015,06,28,01,11,25.60
2015,06,28,01,12,25.60
2015,06,28,01,13,25.60
2015,06,28,01,14,25.60
2015,06,28,01,15,25.60
2015,06,28,01,16,25.50
2015,06,28,01,17,25.50
2015,06,28,01,18,25.50
2015,06,28,01,19,25.50
2015,06,28,01,20,25.50
2015,06,28,01,21,25.50
2015,06,28,01,22,25.50
2015,06,28,01,23,25.40
2015,06,28,01,24,25.40
2015,06,28,01,25,25.40
2015,06,28,01,26,25.40
2015,06,28,01,27,25.40
2015,06,28,01,28,25.40
2015,06,28,01,29,25.40
2015,06,28,01,30,25.40
2015,06,28,01,31,25.40
2015,06,28,01,32,25.30
2015,06,28,01,33,25.30
2015,06,28,01,34,25.30
2015,06,28,01,35,25.20
2015,06,28,01,36,25.20
2015,06,28,01,37,25.20
2015,06,28,01,38,25.20
2015,06,28,01,39,25.10
2015,06,28,01,40,25.10
2015,06,28,01,41,25.10
2015,06,28,01,42,25.10
2015,06,28,01,43,25.10
2015,06,28,01,44,25.00
2015,06,28,01,45,25.00
2015,06,28,01,46,24.90
2015,06,28,01,47,24.90
2015,06,28,01,48,24.90
2015,06,28,01,49,24.90
2015,06,28,01,50,24.90
2015,06,28,01,51,24.90
2015,06,28,01,52,24.90
2015,06,28,01,53,24.80
2015,06,28,01,54,24.80
2015,06,28,01,55,24.80
2015,06,28,01,56,24.80
2015,06,28,01,57,24.80
2015,06,28,01,58,24.80
2015,06,28,01,59,24.80
2015,06,28,02,00,24.80
2015,06,28,02,01,24.80
2015,06,28,02,02,24.80
2015,06,28,02,03,24.80
2015,06,28,02,04,24.80
2015,06,28,02,05,24.80
2015,06,28,02,06,24.80
2015,06,28,02,07,24.80
2015,06,28,02,08,24.80
2015,06,28,02,09,24.80
2015,06,28,02,10,24.80
2015,06,28,02,11,24.80
2015,06,28,02,12,24.80
2015,06,28,02,13,24.80
2015,06,28,02,14,24.80
2015,06,28,02,15,24.80
2015,06,28,02,16,24.80
2015,06,28,02,17,24.80
2015,06,28,02,18,24.70
2015,06,28,02,19,24.70
2015,06,28,02,20,24.70
2015,06,28,02,21,24.70
2015,06,28,02,22,24.70
2015,06,28,02,23,24.70
2015,06,28,02,24,24.70
2015,06,28,02,25,24.70
2015,06,28,02,26,24.60
2015,06,28,02,27,24.60
2015,06,28,02,28,24.60
2015,06,28,02,29,24.60
2015,06,28,02,30,24.60
2015,06,28,02,31,24.60
2015,06,28,02,32,24.60
2015,06,28,02,33,24.60
2015,06,28,02,34,24.60
2015,06,28,02,35,24.60
2015,06,28,02,36,24.60
2015,06,28,02,37,24.60
2015,06,28,02,38,24.60
2015,06,28,02,39,24.60
2015,06,28,02,40,24.60
2015,06,28,02,41,24.60
2015,06,28,02,42,24.50
2015,06,28,02,43,24.50
2015,06,28,02,44,24.50
2015,06,28,02,45,24.40
2015,06,28,02,46,24.40
2015,06,28,02,47,24.40
2015,06,28,02,48,24.40
2015,06,28,02,49,24.30
2015,06,28,02,50,24.30
2015,06,28,02,51,24.30
2015,06,28,02,52,24.20
2015,06,28,02,53,24.20
2015,06,28,02,54,24.20
2015,06,28,02,55,24.20
2015,06,28,02,56,24.10
2015,06,28,02,57,24.10
2015,06,28,02,58,24.00
2015,06,28,02,59,24.00
2015,06,28,03,00,23.90
2015,06,28,03,01,23.90
2015,06,28,03,02,23.80
2015,06,28,03,06,23.70
2015,06,28,03,07,23.60
2015,06,28,03,08,23.60
2015,06,28,03,09,23.50
2015,06,28,03,10,23.50
2015,06,28,03,11,23.40
2015,06,28,03,12,23.40
2015,06,28,03,13,23.30
2015,06,28,03,14,23.30
2015,06,28,03,15,23.30
2015,06,28,03,16,23.20
2015,06,28,03,17,23.20
2015,06,28,03,18,23.20
2015,06,28,03,19,23.20
2015,06,28,03,20,23.20
2015,06,28,03,21,23.20
2015,06,28,03,22,23.30
2015,06,28,03,23,23.30
2015,06,28,03,24,23.30
2015,06,28,03,25,23.30
2015,06,28,03,26,23.30
2015,06,28,03,27,23.30
2015,06,28,03,28,23.30
2015,06,28,03,29,23.40
2015,06,28,03,30,23.40
2015,06,28,03,31,23.40
2015,06,28,03,32,23.40
2015,06,28,03,33,23.40
2015,06,28,03,34,23.40
2015,06,28,03,35,23.40
2015,06,28,03,36,23.40
2015,06,28,03,37,23.40
2015,06,28,03,38,23.40
2015,06,28,03,39,23.30
2015,06,28,03,40,23.30
2015,06,28,03,41,23.30
2015,06,28,03,42,23.30
2015,06,28,03,43,23.30
2015,06,28,03,44,23.30
2015,06,28,03,45,23.30
2015,06,28,03,46,23.30
2015,06,28,03,47,23.30
2015,06,28,03,48,23.30
2015,06,28,03,49,23.30
2015,06,28,03,50,23.20
2015,06,28,03,51,23.20
2015,06,28,03,52,23.20
2015,06,28,03,53,23.20
2015,06,28,03,54,23.20
2015,06,28,03,55,23.20
2015,06,28,03,56,23.10
2015,06,28,03,57,23.10
2015,06,28,03,58,23.10
2015,06,28,03,59,23.00
2015,06,28,04,00,23.00
2015,06,28,04,01,22.90
2015,06,28,04,02,22.80
2015,06,28,04,03,22.80
2015,06,28,04,04,22.70
2015,06,28,04,05,22.70
2015,06,28,04,06,22.60
2015,06,28,04,07,22.60
2015,06,28,04,08,22.50
2015,06,28,04,09,22.40
2015,06,28,04,10,22.40
2015,06,28,04,11,22.40
2015,06,28,04,12,22.30
2015,06,28,04,13,22.30
2015,06,28,04,14,22.30
2015,06,28,04,15,22.30
2015,06,28,04,16,22.30
2015,06,28,04,17,22.20
2015,06,28,04,18,22.20
2015,06,28,04,19,22.20
2015,06,28,04,20,22.20
2015,06,28,04,21,22.20
2015,06,28,04,22,22.20
2015,06,28,04,23,22.30
2015,06,28,04,24,22.30
2015,06,28,04,25,22.30
2015,06,28,04,26,22.40
2015,06,28,04,27,22.50
2015,06,28,04,28,22.50
2015,06,28,04,29,22.50
2015,06,28,04,30,22.60
2015,06,28,04,31,22.60
2015,06,28,04,32,22.60
2015,06,28,04,33,22.60
2015,06,28,04,34,22.60
2015,06,28,04,35,22.60
2015,06,28,04,36,22.60
2015,06,28,04,37,22.60
2015,06,28,04,38,22.60
2015,06,28,04,39,22.60
2015,06,28,04,40,22.60
2015,06,28,04,41,22.60
2015,06,28,04,42,22.60
2015,06,28,04,43,22.60
2015,06,28,04,44,22.60
2015,06,28,04,45,22.60
2015,06,28,04,46,22.60
2015,06,28,04,47,22.60
2015,06,28,04,48,22.60
2015,06,28,04,49,22.60
2015,06,28,04,50,22.60
2015,06,28,04,51,22.60
2015,06,28,04,52,22.60
2015,06,28,04,53,22.60
2015,06,28,04,54,22.50
2015,06,28,04,55,22.50
2015,06,28,04,56,22.50
2015,06,28,04,57,22.50
2015,06,28,04,58,22.50
2015,06,28,04,59,22.50
2015,06,28,05,00,22.50
2015,06,28,05,01,22.50
2015,06,28,05,02,22.50
2015,06,28,05,03,22.40
2015,06,28,05,04,22.40
2015,06,28,05,05,22.40
2015,06,28,05,06,22.40
2015,06,28,05,07,22.50
2015,06,28,05,08,22.50
2015,06,28,05,09,22.50
2015,06,28,05,10,22.50
2015,06,28,05,11,22.50
2015,06,28,05,12,22.60
2015,06,28,05,13,22.60
2015,06,28,05,14,22.60
2015,06,28,05,15,22.60
2015,06,28,05,16,22.70
2015,06,28,05,17,22.70
2015,06,28,05,18,22.70
2015,06,28,05,19,22.70
2015,06,28,05,20,22.70
2015,06,28,05,21,22.70
2015,06,28,05,22,22.70
2015,06,28,05,23,22.70
2015,06,28,05,24,22.70
2015,06,28,05,25,22.80
2015,06,28,05,26,22.70
2015,06,28,05,27,22.70
2015,06,28,05,28,22.70
2015,06,28,05,29,22.80
2015,06,28,05,30,22.80
2015,06,28,05,31,22.80
2015,06,28,05,32,22.80
2015,06,28,05,33,22.80
2015,06,28,05,34,22.80
2015,06,28,05,35,22.80
2015,06,28,05,36,22.70
2015,06,28,05,37,22.70
2015,06,28,05,38,22.70
2015,06,28,05,39,22.70
2015,06,28,05,40,22.70
2015,06,28,05,41,22.70
2015,06,28,05,42,22.60
2015,06,28,05,43,22.60
2015,06,28,05,44,22.60
2015,06,28,05,45,22.60
2015,06,28,05,46,22.60
2015,06,28,05,47,22.60
2015,06,28,05,48,22.60
2015,06,28,05,49,22.60
2015,06,28,05,50,22.60
2015,06,28,05,51,22.60
2015,06,28,05,52,22.60
2015,06,28,05,53,22.60
2015,06,28,05,54,22.60
2015,06,28,05,55,22.60
2015,06,28,05,56,22.60
2015,06,28,05,57,22.70
2015,06,28,05,58,22.70
2015,06,28,05,59,22.70
2015,06,28,06,00,22.70
2015,06,28,06,01,22.70
2015,06,28,06,02,22.70
2015,06,28,06,03,22.70
2015,06,28,06,04,22.60
2015,06,28,06,05,22.60
2015,06,28,06,06,22.60
2015,06,28,06,07,22.60
2015,06,28,06,08,22.60
2015,06,28,06,09,22.60
2015,06,28,06,10,22.60
2015,06,28,06,11,22.50
2015,06,28,06,12,22.50
2015,06,28,06,13,22.50
2015,06,28,06,14,22.40
2015,06,28,06,15,22.50
2015,06,28,06,16,22.50
2015,06,28,06,17,22.50
2015,06,28,06,18,22.50
2015,06,28,06,19,22.60
2015,06,28,06,20,22.60
2015,06,28,06,21,22.60
2015,06,28,06,22,22.60
2015,06,28,06,23,22.70
2015,06,28,06,24,22.70
2015,06,28,06,25,22.70
2015,06,28,06,26,22.70
2015,06,28,06,27,22.70
2015,06,28,06,28,22.70
2015,06,28,06,29,22.70
2015,06,28,06,30,22.70
2015,06,28,06,31,22.70
2015,06,28,06,32,22.70
2015,06,28,06,33,22.70
2015,06,28,06,34,22.70
2015,06,28,06,35,22.70
2015,06,28,06,36,22.70
2015,06,28,06,37,22.70
2015,06,28,06,38,22.80
2015,06,28,06,39,22.80
2015,06,28,06,40,22.80
2015,06,28,06,41,22.90
2015,06,28,06,42,22.90
2015,06,28,06,43,23.00
2015,06,28,06,44,23.00
2015,06,28,06,45,23.10
2015,06,28,06,46,23.10
2015,06,28,06,47,23.10
2015,06,28,06,48,23.20
2015,06,28,06,49,23.20
2015,06,28,06,50,23.20
2015,06,28,06,51,23.20
2015,06,28,06,52,23.30
2015,06,28,06,53,23.30
2015,06,28,06,54,23.30
2015,06,28,06,55,23.30
2015,06,28,06,56,23.30
2015,06,28,06,57,23.30
2015,06,28,06,58,23.30
2015,06,28,06,59,23.30
2015,06,28,07,00,23.30
2015,06,28,07,01,23.30
2015,06,28,07,02,23.30
2015,06,28,07,03,23.30
2015,06,28,07,04,23.30
2015,06,28,07,05,23.30
2015,06,28,07,06,23.40
2015,06,28,07,07,23.40
2015,06,28,07,08,23.40
2015,06,28,07,09,23.40
2015,06,28,07,10,23.40
2015,06,28,07,11,23.50
2015,06,28,07,12,23.50
2015,06,28,07,13,23.50
2015,06,28,07,14,23.60
2015,06,28,07,15,23.60
2015,06,28,07,16,23.60
2015,06,28,07,17,23.60
2015,06,28,07,18,23.60
2015,06,28,07,19,23.60
2015,06,28,07,20,23.60
2015,06,28,07,21,23.70
2015,06,28,07,22,23.70
2015,06,28,07,23,23.70
2015,06,28,07,24,23.70
2015,06,28,07,25,23.70
2015,06,28,07,26,23.80
2015,06,28,07,27,23.80
2015,06,28,07,28,23.80
2015,06,28,07,29,23.90
2015,06,28,07,30,23.90
2015,06,28,07,31,23.90
2015,06,28,07,32,23.90
2015,06,28,07,33,23.90
2015,06,28,07,34,23.90
2015,06,28,07,35,23.90
2015,06,28,07,36,24.00
2015,06,28,07,37,24.00
2015,06,28,07,38,24.00
2015,06,28,07,39,24.00
2015,06,28,07,40,24.00
2015,06,28,07,41,24.00
2015,06,28,07,42,24.00
2015,06,28,07,43,24.00
2015,06,28,07,44,24.00
2015,06,28,07,45,24.00
2015,06,28,07,46,24.00
2015,06,28,07,47,24.00
2015,06,28,07,48,24.00
2015,06,28,07,49,24.00
2015,06,28,07,50,24.00
2015,06,28,07,51,24.00
2015,06,28,07,52,24.10
2015,06,28,07,53,24.10
2015,06,28,07,54,24.10
2015,06,28,07,55,24.10
2015,06,28,07,56,24.10
2015,06,28,07,57,24.10
2015,06,28,07,58,24.20
2015,06,28,07,59,24.20
2015,06,28,08,00,24.30
2015,06,28,08,01,24.30
2015,06,28,08,02,24.30
2015,06,28,08,03,24.40
2015,06,28,08,04,24.40
2015,06,28,08,05,24.40
2015,06,28,08,06,24.40
2015,06,28,08,07,24.50
2015,06,28,08,08,24.50
2015,06,28,08,09,24.50
2015,06,28,08,10,24.50
2015,06,28,08,11,24.50
2015,06,28,08,12,24.50
2015,06,28,08,13,24.50
2015,06,28,08,14,24.50
2015,06,28,08,15,24.50
2015,06,28,08,16,24.50
2015,06,28,08,17,24.50
2015,06,28,08,18,24.40
2015,06,28,08,19,24.40
2015,06,28,08,20,24.40
2015,06,28,08,21,24.40
2015,06,28,08,22,24.50
2015,06,28,08,23,24.50
2015,06,28,08,24,24.60
2015,06,28,08,25,24.70
2015,06,28,08,26,24.70
2015,06,28,08,27,24.70
2015,06,28,08,28,24.80
2015,06,28,08,29,24.80
2015,06,28,08,30,24.80
2015,06,28,08,31,24.80
2015,06,28,08,32,24.90
2015,06,28,08,33,24.90
2015,06,28,08,34,24.90
2015,06,28,08,35,25.00
2015,06,28,08,36,25.10
2015,06,28,08,37,25.10
2015,06,28,08,38,25.10
2015,06,28,08,39,25.20
2015,06,28,08,40,25.10
2015,06,28,08,41,25.20
2015,06,28,08,42,25.20
2015,06,28,08,43,25.20
2015,06,28,08,44,25.20
2015,06,28,08,45,25.20
2015,06,28,08,46,25.20
2015,06,28,08,47,25.20
2015,06,28,08,48,25.30
2015,06,28,08,49,25.30
2015,06,28,08,50,25.30
2015,06,28,08,51,25.40
2015,06,28,08,52,25.40
2015,06,28,08,53,25.50
2015,06,28,08,54,25.50
2015,06,28,08,55,25.60
2015,06,28,08,56,25.60
2015,06,28,08,57,25.60
2015,06,28,08,58,25.50
2015,06,28,08,59,25.40
2015,06,28,09,00,25.40
2015,06,28,09,01,25.30
2015,06,28,09,02,25.20
2015,06,28,09,03,25.20
2015,06,28,09,04,25.30
2015,06,28,09,05,25.30
2015,06,28,09,06,25.30
2015,06,28,09,07,25.30
2015,06,28,09,08,25.30
2015,06,28,09,09,25.30
2015,06,28,09,10,25.30
2015,06,28,09,11,25.30
2015,06,28,09,12,25.40
2015,06,28,09,13,25.40
2015,06,28,09,14,25.30
2015,06,28,09,15,25.20
2015,06,28,09,16,25.10
2015,06,28,09,17,25.10
2015,06,28,09,18,25.00
2015,06,28,09,19,24.90
2015,06,28,09,20,24.90
2015,06,28,09,21,24.90
2015,06,28,09,22,24.90
2015,06,28,09,23,24.90
2015,06,28,09,24,24.90
2015,06,28,09,25,24.90
2015,06,28,09,26,24.80
2015,06,28,09,27,24.80
2015,06,28,09,28,24.80
2015,06,28,09,29,24.80
2015,06,28,09,30,24.90
2015,06,28,09,31,24.90
2015,06,28,09,32,24.90
2015,06,28,09,33,24.90
2015,06,28,09,34,25.00
2015,06,28,09,35,25.10
2015,06,28,09,36,25.10
2015,06,28,09,37,25.20
2015,06,28,09,38,25.20
2015,06,28,09,39,25.30
2015,06,28,09,40,25.30
2015,06,28,09,41,25.30
2015,06,28,09,42,25.40
2015,06,28,09,43,25.40
2015,06,28,09,44,25.40
2015,06,28,09,45,25.40
2015,06,28,09,46,25.40
2015,06,28,09,47,25.40
2015,06,28,09,48,25.30
2015,06,28,09,49,25.30
2015,06,28,09,50,25.30
2015,06,28,09,51,25.30
2015,06,28,09,52,25.30
2015,06,28,09,53,25.30
2015,06,28,09,54,25.40
2015,06,28,09,55,25.40
2015,06,28,09,56,25.40
2015,06,28,09,57,25.40
2015,06,28,09,58,25.50
2015,06,28,09,59,25.60
2015,06,28,10,00,25.60
2015,06,28,10,01,25.70
2015,06,28,10,02,25.70
2015,06,28,10,03,25.70
2015,06,28,10,04,25.70
2015,06,28,10,05,25.70
2015,06,28,10,06,25.70
2015,06,28,10,07,25.60
2015,06,28,10,08,25.50
2015,06,28,10,09,25.40
2015,06,28,10,10,25.40
2015,06,28,10,11,25.40
2015,06,28,10,12,25.30
2015,06,28,10,13,25.30
2015,06,28,10,14,25.30
2015,06,28,10,15,25.30
2015,06,28,10,16,25.30
2015,06,28,10,17,25.40
2015,06,28,10,18,25.40
2015,06,28,10,19,25.40
2015,06,28,10,20,25.40
2015,06,28,10,21,25.40
2015,06,28,10,22,25.40
2015,06,28,10,23,25.50
2015,06,28,10,24,25.60
2015,06,28,10,25,25.60
2015,06,28,10,26,25.70
2015,06,28,10,27,25.80
2015,06,28,10,28,25.80
2015,06,28,10,29,25.90
2015,06,28,10,30,25.90
2015,06,28,10,31,26.00
2015,06,28,10,32,26.00
2015,06,28,10,33,26.10
2015,06,28,10,34,26.10
2015,06,28,10,35,26.10
2015,06,28,10,36,26.10
2015,06,28,10,37,26.10
2015,06,28,10,38,26.10
2015,06,28,10,39,26.10
2015,06,28,10,40,26.20
2015,06,28,10,41,26.10
2015,06,28,10,42,26.10
2015,06,28,10,43,26.00
2015,06,28,10,44,26.00
2015,06,28,10,45,26.00
2015,06,28,10,46,25.90
2015,06,28,10,47,25.90
2015,06,28,10,48,25.90
2015,06,28,10,49,25.90
2015,06,28,10,50,25.90
2015,06,28,10,51,25.80
2015,06,28,10,52,25.80
2015,06,28,10,53,25.70
2015,06,28,10,54,25.60
2015,06,28,10,55,25.50
2015,06,28,10,56,25.40
2015,06,28,10,57,25.30
2015,06,28,10,58,25.20
2015,06,28,10,59,25.20
2015,06,28,11,00,25.10
2015,06,28,11,01,25.10
2015,06,28,11,02,25.00
2015,06,28,11,03,25.00
2015,06,28,11,04,24.90
2015,06,28,11,05,24.90
2015,06,28,11,06,24.90
2015,06,28,11,07,24.90
2015,06,28,11,08,24.90
2015,06,28,11,09,24.90
2015,06,28,11,10,24.90
2015,06,28,11,11,24.90
2015,06,28,11,12,25.00
2015,06,28,11,13,25.10
2015,06,28,11,14,25.10
2015,06,28,11,15,25.10
2015,06,28,11,16,25.10
2015,06,28,11,17,25.20
2015,06,28,11,18,25.20
2015,06,28,11,19,25.20
2015,06,28,11,20,25.20
2015,06,28,11,21,25.10
2015,06,28,11,22,25.10
2015,06,28,11,23,25.10
2015,06,28,11,24,25.10
2015,06,28,11,25,25.10
2015,06,28,11,26,25.20
2015,06,28,11,27,25.20
2015,06,28,11,28,25.30
2015,06,28,11,29,25.30
2015,06,28,11,30,25.40
2015,06,28,11,31,25.50
2015,06,28,11,32,25.50
2015,06,28,11,33,25.60
2015,06,28,11,34,25.70
2015,06,28,11,35,25.70
2015,06,28,11,36,25.70
2015,06,28,11,37,25.70
2015,06,28,11,38,25.80
2015,06,28,11,39,25.80
2015,06,28,11,40,25.80
2015,06,28,11,41,25.80
2015,06,28,11,42,25.80
2015,06,28,11,43,25.90
2015,06,28,11,44,25.90
2015,06,28,11,45,26.00
2015,06,28,11,46,26.00
2015,06,28,11,47,26.10
2015,06,28,11,48,26.10
2015,06,28,11,49,26.00
2015,06,28,11,50,26.10
2015,06,28,11,51,26.10
2015,06,28,11,52,26.20
2015,06,28,11,53,26.30
2015,06,28,11,54,26.40
2015,06,28,11,55,26.50
2015,06,28,11,56,26.60
2015,06,28,11,57,26.70
2015,06,28,11,58,26.70
2015,06,28,11,59,26.70
2015,06,28,12,00,26.80
2015,06,28,12,01,26.80
2015,06,28,12,02,26.70
2015,06,28,12,03,26.70
2015,06,28,12,04,26.70
2015,06,28,12,05,26.60
2015,06,28,12,06,26.70
2015,06,28,12,07,26.70
2015,06,28,12,08,26.70
2015,06,28,12,09,26.70
2015,06,28,12,10,26.80
2015,06,28,12,11,26.80
2015,06,28,12,12,26.80
2015,06,28,12,13,26.70
2015,06,28,12,14,26.70
2015,06,28,12,15,26.70
2015,06,28,12,16,26.80
2015,06,28,12,17,26.80
2015,06,28,12,18,26.90
2015,06,28,12,19,26.90
2015,06,28,12,20,27.00
2015,06,28,12,21,27.10
2015,06,28,12,22,27.20
2015,06,28,12,23,27.30
2015,06,28,12,24,27.40
2015,06,28,12,25,27.50
2015,06,28,12,26,27.60
2015,06,28,12,27,27.70
2015,06,28,12,28,27.80
2015,06,28,12,29,27.80
2015,06,28,12,30,27.90
2015,06,28,12,31,27.90
2015,06,28,12,32,27.90
2015,06,28,12,33,28.00
2015,06,28,12,34,28.10
2015,06,28,12,35,28.10
2015,06,28,12,36,28.20
2015,06,28,12,37,28.20
2015,06,28,12,38,28.30
2015,06,28,12,39,28.20
2015,06,28,12,40,28.30
2015,06,28,12,41,28.30
2015,06,28,12,42,28.30
2015,06,28,12,43,28.30
2015,06,28,12,44,28.20
2015,06,28,12,45,28.20
2015,06,28,12,46,28.20
2015,06,28,12,47,28.10
2015,06,28,12,48,28.10
2015,06,28,12,49,28.10
2015,06,28,12,50,28.00
2015,06,28,12,51,28.00
2015,06,28,12,52,28.00
2015,06,28,12,53,27.90
2015,06,28,12,54,27.90
2015,06,28,12,55,27.90
2015,06,28,12,56,27.80
2015,06,28,12,57,27.80
2015,06,28,12,58,27.80
2015,06,28,12,59,27.70
2015,06,28,13,00,27.70
2015,06,28,13,01,27.70
2015,06,28,13,02,27.70
2015,06,28,13,03,27.70
2015,06,28,13,04,27.70
2015,06,28,13,05,27.70
2015,06,28,13,06,27.70
2015,06,28,13,07,27.80
2015,06,28,13,08,27.80
2015,06,28,13,09,27.80
2015,06,28,13,10,27.90
2015,06,28,13,11,27.90
2015,06,28,13,12,27.90
2015,06,28,13,13,28.00
2015,06,28,13,14,28.00
2015,06,28,13,15,28.10
2015,06,28,13,16,28.10
2015,06,28,13,17,28.10
2015,06,28,13,18,28.10
2015,06,28,13,19,28.10
2015,06,28,13,20,28.20
2015,06,28,13,21,28.20
2015,06,28,13,22,28.30
2015,06,28,13,23,28.30
2015,06,28,13,24,28.40
2015,06,28,13,25,28.40
2015,06,28,13,26,28.40
2015,06,28,13,27,28.40
2015,06,28,13,28,28.40
2015,06,28,13,29,28.40
2015,06,28,13,30,28.40
2015,06,28,13,31,28.40
2015,06,28,13,32,28.40
2015,06,28,13,33,28.40
2015,06,28,13,34,28.30
2015,06,28,13,35,28.30
2015,06,28,13,36,28.30
2015,06,28,13,37,28.30
2015,06,28,13,38,28.30
2015,06,28,13,39,28.30
2015,06,28,13,40,28.30
2015,06,28,13,41,28.40
2015,06,28,13,42,28.40
2015,06,28,13,43,28.50
2015,06,28,13,44,28.60
2015,06,28,13,45,28.60
2015,06,28,13,46,28.70
2015,06,28,13,47,28.70
2015,06,28,13,48,28.80
2015,06,28,13,49,28.80
2015,06,28,13,50,28.80
2015,06,28,13,51,28.90
2015,06,28,13,52,29.00
2015,06,28,13,53,29.10
2015,06,28,13,54,29.10
2015,06,28,13,55,29.20
2015,06,28,13,56,29.20
2015,06,28,13,57,29.20
2015,06,28,13,58,29.20
2015,06,28,13,59,29.20
2015,06,28,14,00,29.20
2015,06,28,14,01,29.30
2015,06,28,14,02,29.30
2015,06,28,14,03,29.30
2015,06,28,14,04,29.30
2015,06,28,14,05,29.40
2015,06,28,14,06,29.40
2015,06,28,14,07,29.40
2015,06,28,14,08,29.50
2015,06,28,14,09,29.60
2015,06,28,14,10,29.60
2015,06,28,14,11,29.70
2015,06,28,14,12,29.80
2015,06,28,14,13,29.80
2015,06,28,14,14,29.80
2015,06,28,14,15,29.80
2015,06,28,14,16,29.80
2015,06,28,14,17,29.80
2015,06,28,14,18,29.90
2015,06,28,14,19,29.90
2015,06,28,14,20,29.90
2015,06,28,14,21,29.90
2015,06,28,14,22,29.90
2015,06,28,14,23,29.80
2015,06,28,14,24,29.80
2015,06,28,14,25,29.80
2015,06,28,14,26,29.80
2015,06,28,14,27,29.80
2015,06,28,14,28,29.90
2015,06,28,14,29,29.90
2015,06,28,14,30,30.00
2015,06,28,14,31,30.10
2015,06,28,14,32,30.20
2015,06,28,14,33,30.30
2015,06,28,14,34,30.30
2015,06,28,14,35,30.30
2015,06,28,14,36,30.40
2015,06,28,14,37,30.40
2015,06,28,14,38,30.40
2015,06,28,14,39,30.50
2015,06,28,14,40,30.60
2015,06,28,14,41,30.70
2015,06,28,14,42,30.70
2015,06,28,14,43,30.70
2015,06,28,14,44,30.70
2015,06,28,14,45,30.60
2015,06,28,14,46,30.50
2015,06,28,14,47,30.40
2015,06,28,14,48,30.20
2015,06,28,14,49,30.10
2015,06,28,14,50,30.00
2015,06,28,14,51,29.90
2015,06,28,14,52,29.80
2015,06,28,14,53,29.70
2015,06,28,14,54,29.70
2015,06,28,14,55,29.60
2015,06,28,14,56,29.60
2015,06,28,14,57,29.50
2015,06,28,14,58,29.50
2015,06,28,14,59,29.50
2015,06,28,15,00,29.50
2015,06,28,15,01,29.50
2015,06,28,15,02,29.60
2015,06,28,15,03,29.60
2015,06,28,15,04,29.60
2015,06,28,15,05,29.60
2015,06,28,15,06,29.70
2015,06,28,15,07,29.70
2015,06,28,15,08,29.70
2015,06,28,15,09,29.70
2015,06,28,15,10,29.70
2015,06,28,15,11,29.70
2015,06,28,15,12,29.80
2015,06,28,15,13,29.80
2015,06,28,15,14,29.80
2015,06,28,15,15,29.70
2015,06,28,15,16,29.60
2015,06,28,15,17,29.40
2015,06,28,15,18,29.20
2015,06,28,15,19,29.00
2015,06,28,15,20,28.70
2015,06,28,15,21,28.50
2015,06,28,15,22,28.20
2015,06,28,15,23,27.90
2015,06,28,15,24,27.60
2015,06,28,15,25,27.30
2015,06,28,15,26,27.10
2015,06,28,15,27,27.00
2015,06,28,15,28,26.80
2015,06,28,15,29,26.70
2015,06,28,15,30,26.60
2015,06,28,15,31,26.50
2015,06,28,15,32,26.40
2015,06,28,15,33,26.30
2015,06,28,15,34,26.10
2015,06,28,15,35,26.00
2015,06,28,15,36,25.90
2015,06,28,15,37,25.80
2015,06,28,15,38,25.60
2015,06,28,15,39,25.60
2015,06,28,15,40,25.50
2015,06,28,15,41,25.50
2015,06,28,15,42,25.50
2015,06,28,15,43,25.50
2015,06,28,15,44,25.50
2015,06,28,15,45,25.50
2015,06,28,15,46,25.50
2015,06,28,15,47,25.50
2015,06,28,15,48,25.60
2015,06,28,15,49,25.60
2015,06,28,15,50,25.60
2015,06,28,15,51,25.60
2015,06,28,15,52,25.70
2015,06,28,15,53,25.70
2015,06,28,15,54,25.70
2015,06,28,15,55,25.70
2015,06,28,15,56,25.70
2015,06,28,15,57,25.70
2015,06,28,15,58,25.70
2015,06,28,15,59,25.70
2015,06,28,16,00,25.70
2015,06,28,16,01,25.60
2015,06,28,16,02,25.60
2015,06,28,16,03,25.50
2015,06,28,16,04,25.30
2015,06,28,16,05,25.20
2015,06,28,16,06,25.10
2015,06,28,16,07,25.00
2015,06,28,16,08,24.90
2015,06,28,16,09,24.80
2015,06,28,16,10,24.80
2015,06,28,16,11,24.70
2015,06,28,16,12,24.70
2015,06,28,16,13,24.70
2015,06,28,16,14,24.70
2015,06,28,16,15,24.70
2015,06,28,16,16,24.70
2015,06,28,16,17,24.60
2015,06,28,16,18,24.60
2015,06,28,16,19,24.50
2015,06,28,16,20,24.40
2015,06,28,16,21,24.20
2015,06,28,16,22,24.20
2015,06,28,16,23,24.10
2015,06,28,16,24,24.10
2015,06,28,16,25,24.10
2015,06,28,16,26,24.00
2015,06,28,16,27,23.90
2015,06,28,16,28,23.90
2015,06,28,16,29,23.80
2015,06,28,16,30,23.70
2015,06,28,16,31,23.60
2015,06,28,16,32,23.50
2015,06,28,16,33,23.40
2015,06,28,16,34,23.40
2015,06,28,16,35,23.30
2015,06,28,16,36,23.30
2015,06,28,16,37,23.20
2015,06,28,16,38,23.20
2015,06,28,16,39,23.20
2015,06,28,16,40,23.10
2015,06,28,16,41,23.10
2015,06,28,16,42,23.00
2015,06,28,16,43,23.00
2015,06,28,16,44,23.00
2015,06,28,16,45,23.00
2015,06,28,16,46,23.00
2015,06,28,16,47,23.00
2015,06,28,16,48,23.00
2015,06,28,16,49,23.10
2015,06,28,16,50,23.10
2015,06,28,16,51,23.10
2015,06,28,16,52,23.00
2015,06,28,16,53,23.00
2015,06,28,16,54,23.00
2015,06,28,16,55,23.00
2015,06,28,16,56,23.10
2015,06,28,16,57,23.10
2015,06,28,16,58,23.10
2015,06,28,16,59,23.20
2015,06,28,17,00,23.30
2015,06,28,17,01,23.40
2015,06,28,17,02,23.50
2015,06,28,17,03,23.50
2015,06,28,17,04,23.60
2015,06,28,17,05,23.60
2015,06,28,17,06,23.70
2015,06,28,17,07,23.70
2015,06,28,17,08,23.70
2015,06,28,17,09,23.70
2015,06,28,17,10,23.70
2015,06,28,17,11,23.80
2015,06,28,17,12,23.80
2015,06,28,17,13,23.80
2015,06,28,17,14,23.80
2015,06,28,17,15,23.80
2015,06,28,17,16,23.90
2015,06,28,17,17,23.90
2015,06,28,17,18,24.00
2015,06,28,17,19,24.00
2015,06,28,17,20,24.10
2015,06,28,17,21,24.10
2015,06,28,17,22,24.20